Racecast

2022 NIAA State XC Championships

Veterans Memorial Park · 5000m · Boys · 3A · 2022-11-05 · NV

Course difficulty: +0.042

Race-day weather: 54°F · wind 7 mph · humidity 28%

View full meet →

Team scores

Place Team Points 12345 67
1 Spring Creek (NV) 35 1 5 7 8 14 20 21
2 Somerset Academy Sky Pointe (NV) 81 4 11 19 23 24 26 31
3 Moapa Valley (NV) 81 6 10 18 22 25 29 34
4 North Valleys (NV) 107 3 9 16 38 39 46 50
5 Elko (NV) 117 2 17 30 32 35 40 51
6 Virgin Valley (NV) 140 13 15 27 41 42 43 45
7 Tahoe-Truckee (CA) 145 12 28 33 37 49
8 Pahrump Valley (NV) 235 36 44 47 48 52 53 54

As scored by the meet.

Results

Place Athlete Grade School Time Rating Points
1 Nathan Thomas 11 Spring Creek (NV) 1 16:21.6 134.7 1
2 Braylon Baggett 11 Elko (NV) 1 16:29 133.7 2
3 Austin Key 11 North Valleys (NV) 1 16:31 PR 133.4 3
4 Jack Medina 10 Somerset Academy Sky Pointe (NV) 1 16:38.3 PR 132.4 4
5 Joel Herman 12 Spring Creek (NV) 2 16:38.8 132.4 5
6 Marcus Shambaugh 12 Moapa Valley (NV) 1 16:42.6 131.9 6
7 Jake Bradford 12 Spring Creek (NV) 3 16:56 130.2 7
8 Kael Paz 10 Fernley (NV) 1 17:00.5 129.6
9 Atticus Reyher 10 Wooster (OH) 1 17:10.9 PR 128.3
10 Liam Hamilton 12 Spring Creek (NV) 4 17:15.7 127.7 8
11 Charles Cisneros 12 North Valleys (NV) 2 17:24.5 PR 126.6 9
12 Mordechai Yadegar 10 Moapa Valley (NV) 2 17:34.9 125.3 10
13 Landen Loveless 12 Somerset Academy Sky Pointe (NV) 2 17:42.3 PR 124.5 11
14 Blake Moran 11 Tahoe-Truckee (CA) 1 17:44.6 PR 124.2 12
15 Ivan Lara 12 Lowry (NV) 1 17:47 123.9
16 Isaac Greig 10 Virgin Valley (NV) 1 17:47.4 PR 123.9 13
17 Hayden Mitchel 12 Spring Creek (NV) 5 17:47.6 PR 123.9 14
18 Owen Rappleye 12 Virgin Valley (NV) 2 17:53.8 123.1 15
19 Carson Key 9 North Valleys (NV) 3 17:56 PR 122.9 16
20 Caden Wallace 12 Elko (NV) 2 17:57.9 PR 122.7 17
21 Isaac Thompson 11 Moapa Valley (NV) 3 18:01.3 122.3 18
22 William Bennion 12 Somerset Academy Sky Pointe (NV) 3 18:04.5 PR 121.9 19
23 Benjamin Claridge 12 Spring Creek (NV) 6 18:07.9 PR 121.5 20
24 Ian Mitchel 11 Spring Creek (NV) 7 18:08 121.5 21
25 Gavin Hendricks 10 Moapa Valley (NV) 4 18:08.8 PR 121.4 22
26 Kayleb McClain 10 Somerset Academy Sky Pointe (NV) 4 18:10.8 PR 121.2 23
27 Michael Howard 11 Somerset Academy Sky Pointe (NV) 5 18:12.2 PR 121.1 24
28 Joseph Barnes 12 Moapa Valley (NV) 5 18:13.8 PR 120.9 25
29 Christian Andrade 11 Somerset Academy Sky Pointe (NV) 6 18:16.2 PR 120.6 26
30 Brayden Jones 12 Boulder City (NV) 1 18:21.2 120.1
31 Gavin Hughes 11 Virgin Valley (NV) 3 18:23.8 PR 119.8 27
32 Aidan Concannon 11 Tahoe-Truckee (CA) 2 18:26.3 PR 119.5 28
33 William Anderson 11 Moapa Valley (NV) 6 18:32.6 SR 118.8 29
34 Landon Lenz 12 Elko (NV) 3 18:36.9 118.4 30
35 Madison Trussel 12 Somerset Academy Sky Pointe (NV) 7 18:37 PR 118.4 31
36 James Fericks 11 Elko (NV) 4 18:40.1 PR 118.0 32
37 Logan Selander 12 Tahoe-Truckee (CA) 3 18:43.2 117.7 33
38 Cooper Munson 10 South Tahoe (NV) 1 18:46.7 PR 117.4
39 Luke Amato 10 South Tahoe (NV) 2 18:49.2 PR 117.1
40 Levi Patterson 12 Fernley (NV) 2 18:49.5 PR 117.1
41 Max Fisher 9 Tahoe-Truckee (CA) 4 18:50 PR 117.0 34
42 Hal Thompson 9 Moapa Valley (NV) 7 18:52.8 PR 116.7 35
43 Dexter Wallace 10 Elko (NV) 5 18:54.2 PR 116.6 36
44 Aydon Veloz 9 Pahrump Valley (NV) 1 18:54.3 PR 116.6 37
45 Keb Schnurrenberger 9 Tahoe-Truckee (CA) 5 19:11.4 PR 114.8 38
46 Semaj Hall 10 Somerset Academy Losee HS (NV) 1 19:11.6 114.8
47 Michael Fitzgerald 9 Fernley (NV) 3 19:16.5 PR 114.3
48 Lucas Luciani-Eaton 10 North Valleys (NV) 4 19:20.1 PR 114.0 39
49 Jesus Romero 12 Chaparral (CA) 1 19:20.2 PR 114.0
50 Taylor Steelman 11 North Valleys (NV) 5 19:34.5 PR 112.6 40
51 Kyler Evans 12 Elko (NV) 6 19:38.3 112.2 41
52 Drew Maxfield 12 Virgin Valley (NV) 4 19:42.2 PR 111.8 42
53 Michael Anderson 11 Virgin Valley (NV) 5 19:46.1 PR 111.5 43
54 Connor Zarate 11 Virgin Valley (NV) 6 19:51.4 111.0 44
55 Timothy Stutzman 9 Pahrump Valley (NV) 2 19:52.9 PR 110.8 45
56 Spencer Sonne 12 Tahoe-Truckee (CA) 6 20:03.6 PR 109.9 46
57 Destry Tobler 10 Virgin Valley (NV) 7 20:03.6 109.9 47
58 Ethan Woolard 9 Pinecrest Academy Cadence (NV) 1 20:08.7 PR 109.4
59 Isaiah Daniel Wallace 11 North Valleys (NV) 6 20:16.2 PR 108.7 48
60 Antonio Veloz 10 Pahrump Valley (NV) 3 20:22.6 PR 108.2 49
61 Brandon Pickett 10 Boulder City (NV) 2 20:29.4 107.6
62 Vito DiArchangel 12 Coral Academy of Science (Sandy Ridge) (NV) 1 20:35.5 107.0
63 Theron Abbiss 11 Pahrump Valley (NV) 4 20:39.4 106.7 50
64 Leonardo Posada 9 Tahoe-Truckee (CA) 7 20:45.7 PR 106.2 51
65 Sander Johnson 12 North Valleys (NV) 7 20:53.6 PR 105.5 52
66 Daniel Robles 12 Elko (NV) 7 21:13.5 103.8 53
67 Jackson Floyd 11 Pahrump Valley (NV) 5 21:40.4 101.7 54
68 Isaac Norton 10 Pahrump Valley (NV) 6 22:59.3 95.9 55
69 Nicolas Cowart 9 Pahrump Valley (NV) 7 23:07.2 95.3 56
Something wrong on this page? Report it →